Terminal Aerodrome Forecast
Issued by NWS Boston, MA

Home | Current Version | Previous Version | Text Only | Print | Product List | Glossary On
Versions: 1 2 3 4 5 6 7 8 9 10 11 12 13 14 15 16 17 18 19 20 21 22 23 24 25 26 27 28 29 30 31 32 33 34 35 36 37 38 39 40 41 42 43 44 45 46 47 48
000
FTUS41 KBOX 172339
TAFORH
TAF
KORH 172339Z 1800/1824 28015G22KT P6SM OVC080
     FM180300 28010KT P6SM OVC020
     FM180500 28011KT P6SM OVC025
     FM181200 28012KT P6SM OVC035
     FM181500 29012G25KT P6SM BKN035=

USA.gov is the U.S. government's official web portal to all federal, state and local government web resources and services.